Weather History for KICR - May, 2014

Change the Weather History Date:

Saturday, May 17, 2014

  Actual Average Record
Temperature  
Mean Temperature 53 °F 58 °F  
Max Temperature 67 °F 70 °F 92 °F (2012)
Min Temperature 39 °F 47 °F 39 °F (2014)
Degree Days  
Heating Degree Days 12 7  
Month to date heating degree days 240 165  
Since 1 July heating degree days 7002 6569  
Cooling Degree Days 0 1  
Month to date cooling degree days 0 12  
Year to date cooling degree days 3 14  
Growing Degree Days 2 (Base 50)    
Moisture  
Dew Point 38 °F    
Average Humidity 58    
Maximum Humidity 85    
Minimum Humidity 31    
Precipitation  
Precipitation 0.00 in 0.11 in 0.44 in (2013)
Month to date precipitation 1.79 1.82  
Year to date precipitation 4.22 6.45  
Sea Level Pressure  
Sea Level Pressure 30.07 in    
Wind  
Wind Speed 8 mph (SSW)    
Max Wind Speed 18 mph    
Max Gust Speed 23 mph    
Visibility 10 miles    
Events      
T = Trace of Precipitation, MM = Missing Value Source: NWS Daily Summary

Daily Weather History Graph

Daily Weather History Graph

Search for Another Location

Airport or City:

Trip Planner

Search our weather history database for the weather conditions in past years. The results will help you decide how hot, cold, wet, or windy it might be!

Date:

Astronomy

May. 17, 2014 Rise Set
Actual Time 6:12 AM CDT 8:59 PM CDT
Civil Twilight 5:39 AM CDT 9:32 PM CDT
Nautical Twilight 4:57 AM CDT 10:14 PM CDT
Astronomical Twilight 4:09 AM CDT 11:03 PM CDT
Moon No Moon Rise 8:57 AM CDT (5/17)
Length of Visible Light 15h 52m
Length of Day
14h 46m
Waning Gibbous, 89% of the Moon is Illuminated
May 17
Waning Gibbous
May 21
Last Quarter
May 28
New
Jun 5
First Quarter
Jun 12
Full

Hourly Weather History & Observations

Time (CDT) Temp. Windchill Dew Point Humidity Pressure Visibility Wind Dir Wind Speed Gust Speed Precip Events Conditions
12:53 AM 43.0 °F 38.8 °F 35.1 °F 74% 30.14 in 10.0 mi SW 6.9 mph - N/A   Clear
1:53 AM 41.0 °F 36.4 °F 35.1 °F 79% 30.15 in 10.0 mi SW 6.9 mph - N/A   Clear
2:53 AM 41.0 °F 37.1 °F 35.1 °F 79% 30.14 in 10.0 mi SW 5.8 mph - N/A   Clear
3:53 AM 41.0 °F 34.7 °F 35.1 °F 79% 30.13 in 10.0 mi SSW 10.4 mph - N/A   Clear
4:53 AM 39.9 °F 35.1 °F 35.1 °F 83% 30.13 in 10.0 mi SW 6.9 mph - N/A   Clear
5:53 AM 39.9 °F 35.1 °F 35.1 °F 83% 30.12 in 10.0 mi SW 6.9 mph - N/A   Clear
6:53 AM 39.9 °F 36.7 °F 35.1 °F 83% 30.12 in 10.0 mi SW 4.6 mph - N/A   Clear
7:53 AM 44.1 °F 40.1 °F 37.9 °F 79% 30.12 in 10.0 mi SW 6.9 mph - N/A   Clear
8:53 AM 50.0 °F - 41.0 °F 71% 30.12 in 10.0 mi SW 10.4 mph - N/A   Clear
9:53 AM 54.0 °F - 39.0 °F 57% 30.11 in 10.0 mi SSW 13.8 mph - N/A   Clear
10:53 AM 57.0 °F - 39.0 °F 51% 30.10 in 10.0 mi SSW 11.5 mph - N/A   Clear
11:53 AM 59.0 °F - 35.1 °F 41% 30.09 in 10.0 mi Variable 5.8 mph - N/A   Clear
12:53 PM 62.1 °F - 37.9 °F 41% 30.08 in 10.0 mi WSW 10.4 mph - N/A   Clear
1:53 PM 62.1 °F - 36.0 °F 38% 30.06 in 10.0 mi Variable 3.5 mph - N/A   Clear
2:53 PM 64.0 °F - 34.0 °F 33% 30.05 in 10.0 mi SSW 8.1 mph - N/A   Clear
3:53 PM 64.0 °F - 36.0 °F 35% 30.03 in 10.0 mi South 8.1 mph - N/A   Partly Cloudy
4:53 PM 64.9 °F - 37.9 °F 37% 30.02 in 10.0 mi SW 8.1 mph - N/A   Partly Cloudy
5:53 PM 64.9 °F - 39.9 °F 40% 30.01 in 10.0 mi South 6.9 mph - N/A   Mostly Cloudy
6:53 PM 66.0 °F - 39.9 °F 38% 30.00 in 10.0 mi SSE 5.8 mph - N/A   Scattered Clouds
7:53 PM 63.0 °F - 39.9 °F 43% 30.00 in 10.0 mi South 4.6 mph - N/A   Partly Cloudy
9:53 PM 55.9 °F - 42.1 °F 60% 29.99 in 10.0 mi SE 8.1 mph - N/A   Partly Cloudy
10:53 PM 51.1 °F - 41.0 °F 68% 30.01 in 10.0 mi SE 6.9 mph - N/A   Clear
11:53 PM 51.1 °F - 42.1 °F 71% 29.99 in 10.0 mi South 11.5 mph - N/A   Clear